Location: Newark
(32.8014°N, 52.8711°E)
Time: 21:14:47
(UTC+00:00)

Envisat - Pass Details

Date: 26 January 2020
Orbit: 764 x 766 km, 98.1° (Epoch: 19 February)

Event Time Altitude Azimuth Distance (km) Brightness Sun altitude
Rises 02:17:31 0° 26° (NNE) 3,233 6.4 -14.8°
Reaches altitude 10° 02:20:09 10° 38° (NE) 2,303 5.8 -14.3°
Maximum altitude 02:24:28 28° 96° (E) 1,416 5.3 -13.4°
Drops below altitude 10° 02:28:45 10° 155° (SSE) 2,291 6.0 -12.5°
Sets 02:31:21 0° 167° (SSE) 3,213 6.6 -12.0°
